Weather History for Flag Island, MN

Change the Weather History Date:

Tuesday, January 29, 2013

  Actual Average Record
Temperature  
Mean Temperature 14 °F -  
Max Temperature 23 °F 12 °F 30 °F (2005)
Min Temperature 6 °F 0 °F -32 °F (2004)
Degree Days  
Heating Degree Days 50    
Moisture  
Dew Point 13 °F    
Average Humidity 85    
Maximum Humidity 93    
Minimum Humidity 73    
Precipitation  
Precipitation 0.00 in - - ()
Sea Level Pressure  
Sea Level Pressure 29.72 in    
Wind  
Wind Speed 12 mph (NW)    
Max Wind Speed 23 mph    
Max Gust Speed 28 mph    
Visibility 8 miles    
Events Snow    
Averages and records for this station are not official NWS values.
T = Trace of Precipitation, MM = Missing Value Source: NWS Daily Summary

Daily Weather History Graph

Daily Weather History Graph

Search for Another Location

Airport:

Trip Planner

Search our weather history database for the weather conditions in past years. The results will help you decide how hot, cold, wet, or windy it might be!

Date:

Astronomy

Jan. 29, 2013 Rise Set
Actual Time 7:54 AM CST 5:11 PM CST
Civil Twilight 7:20 AM CST 5:46 PM CST
Nautical Twilight 6:41 AM CST 6:24 PM CST
Astronomical Twilight 6:04 AM CST 7:02 PM CST
Moon 8:30 PM CST (1/29) 8:33 AM CST (1/29)
Length of Visible Light 10h 26m
Length of Day
9h 16m
Waning Gibbous, 93% of the Moon is Illuminated
Jan 29
Waning Gibbous
Feb 3
Last Quarter
Feb 10
New
Feb 17
First Quarter
Feb 25
Full

Hourly Weather History & Observations

Time (CST) Temp. Windchill Dew Point Humidity Pressure Visibility Wind Dir Wind Speed Gust Speed Precip Events Conditions
12:14 AM 23.0 °F 17.0 °F 19.4 °F 86% 29.68 in 5.0 mi North 4.6 mph - N/A   Overcast
12:33 AM 21.2 °F 13.6 °F 19.4 °F 93% 29.68 in 5.0 mi NW 5.8 mph - N/A   Scattered Clouds
12:54 AM 21.2 °F 12.6 °F 19.4 °F 93% 29.69 in 5.0 mi NNW 6.9 mph - N/A   Scattered Clouds
1:14 AM 21.2 °F 12.6 °F 19.4 °F 93% 29.68 in 5.0 mi NNW 6.9 mph - N/A   Scattered Clouds
1:33 AM 21.2 °F 10.9 °F 19.4 °F 93% 29.67 in 5.0 mi NNW 9.2 mph - N/A   Mostly Cloudy
1:54 AM 21.2 °F 9.5 °F 19.4 °F 93% 29.67 in 5.0 mi NW 11.5 mph - N/A   Overcast
2:14 AM 21.2 °F 10.1 °F 19.4 °F 93% 29.65 in 5.0 mi NNW 10.4 mph - N/A   Overcast
2:33 AM 21.2 °F 8.9 °F 19.4 °F 93% 29.66 in 7.0 mi NNW 12.7 mph - N/A   Overcast
2:54 AM 21.2 °F 10.1 °F 19.4 °F 93% 29.65 in 7.0 mi NNW 10.4 mph - N/A   Overcast
3:14 AM 21.2 °F 12.6 °F 19.4 °F 93% 29.65 in 7.0 mi North 6.9 mph - N/A   Overcast
3:33 AM 21.2 °F 10.9 °F 19.4 °F 93% 29.64 in 7.0 mi NNW 9.2 mph - N/A   Overcast
3:54 AM 21.2 °F 12.6 °F 17.6 °F 86% 29.64 in 7.0 mi NNW 6.9 mph - N/A   Overcast
4:13 AM 21.2 °F 11.7 °F 17.6 °F 86% 29.64 in 7.0 mi NNW 8.1 mph - N/A   Overcast
4:33 AM 21.2 °F 11.7 °F 17.6 °F 86% 29.63 in 7.0 mi NNW 8.1 mph - N/A   Overcast
4:54 AM 19.4 °F 8.6 °F 17.6 °F 93% 29.63 in 7.0 mi NNW 9.2 mph - N/A   Overcast
5:13 AM 19.4 °F 9.5 °F 17.6 °F 93% 29.64 in 7.0 mi NW 8.1 mph - N/A   Overcast
5:33 AM 19.4 °F 9.5 °F 17.6 °F 93% 29.65 in 7.0 mi NW 8.1 mph - N/A   Overcast
5:54 AM 19.4 °F 8.6 °F 17.6 °F 93% 29.64 in 7.0 mi NW 9.2 mph - N/A   Overcast
6:13 AM 19.4 °F 8.6 °F 17.6 °F 93% 29.64 in 7.0 mi NW 9.2 mph - N/A   Overcast
6:33 AM 19.4 °F 9.5 °F 17.6 °F 93% 29.64 in 7.0 mi NNW 8.1 mph - N/A   Overcast
6:54 AM 19.4 °F 9.5 °F 17.6 °F 93% 29.64 in 7.0 mi NW 8.1 mph - N/A   Overcast
7:13 AM 19.4 °F 7.9 °F 17.6 °F 93% 29.63 in 7.0 mi NW 10.4 mph - N/A   Overcast
7:33 AM 19.4 °F 6.6 °F 17.6 °F 93% 29.64 in 7.0 mi NW 12.7 mph - N/A   Overcast
7:54 AM 19.4 °F 6.0 °F 17.6 °F 93% 29.64 in 7.0 mi NNW 13.8 mph - N/A   Overcast
8:13 AM 19.4 °F 6.6 °F 15.8 °F 86% 29.65 in 5.0 mi NW 12.7 mph - N/A   Overcast
8:34 AM 19.4 °F 6.6 °F 15.8 °F 86% 29.65 in 5.0 mi NW 12.7 mph - N/A   Overcast
8:53 AM 19.4 °F 6.6 °F 15.8 °F 86% 29.66 in 5.0 mi NW 12.7 mph - N/A   Overcast
9:13 AM 19.4 °F 6.0 °F 15.8 °F 86% 29.67 in 5.0 mi NW 13.8 mph - N/A   Overcast
9:34 AM 19.4 °F 7.2 °F 15.8 °F 86% 29.67 in 5.0 mi NW 11.5 mph - N/A   Overcast
9:53 AM 19.4 °F 6.0 °F 15.8 °F 86% 29.68 in 5.0 mi NW 13.8 mph - N/A   Overcast
10:13 AM 19.4 °F 6.6 °F 15.8 °F 86% 29.69 in 5.0 mi NW 12.7 mph - N/A   Overcast
10:33 AM 19.4 °F 6.6 °F 15.8 °F 86% 29.69 in 5.0 mi NW 12.7 mph - N/A   Overcast
10:53 AM 19.4 °F 6.0 °F 15.8 °F 86% 29.69 in 5.0 mi NW 13.8 mph - N/A   Overcast
11:14 AM 19.4 °F 5.5 °F 15.8 °F 86% 29.70 in 7.0 mi NW 15.0 mph - N/A   Overcast
11:33 AM 19.4 °F 5.5 °F 15.8 °F 86% 29.70 in 7.0 mi NW 15.0 mph - N/A   Overcast
11:54 AM 19.4 °F 5.5 °F 15.8 °F 86% 29.70 in 7.0 mi NW 15.0 mph - N/A   Overcast
12:14 PM 21.2 °F 8.3 °F 17.6 °F 86% 29.70 in 7.0 mi WNW 13.8 mph - N/A   Overcast
12:33 PM 19.4 °F 5.0 °F 17.6 °F 93% 29.70 in 10.0 mi NW 16.1 mph - N/A   Overcast
12:54 PM 21.2 °F 6.8 °F 15.8 °F 80% 29.70 in 10.0 mi NW 17.3 mph 21.9 mph N/A   Overcast
1:14 PM 19.4 °F 4.5 °F 15.8 °F 86% 29.70 in 10.0 mi NW 17.3 mph - N/A   Overcast
1:33 PM 19.4 °F 5.5 °F 14.0 °F 80% 29.71 in 10.0 mi NW 15.0 mph - N/A   Overcast
1:54 PM 19.4 °F 4.1 °F 12.2 °F 74% 29.71 in 10.0 mi WNW 18.4 mph - N/A   Overcast
2:14 PM 19.4 °F 5.0 °F 12.2 °F 74% 29.72 in 10.0 mi NW 16.1 mph - N/A   Overcast
2:33 PM 17.6 °F 3.2 °F 12.2 °F 79% 29.72 in 10.0 mi NW 15.0 mph - N/A   Overcast
2:54 PM 17.6 °F 2.7 °F 12.2 °F 79% 29.72 in 10.0 mi NW 16.1 mph - N/A   Overcast
3:13 PM 17.6 °F 2.2 °F 10.4 °F 73% 29.73 in 10.0 mi NW 17.3 mph - N/A   Overcast
3:33 PM 17.6 °F 0.9 °F 10.4 °F 73% 29.74 in 10.0 mi NW 20.7 mph 24.2 mph N/A   Overcast
3:53 PM 15.8 °F -1.5 °F 10.4 °F 79% 29.74 in 10.0 mi NW 20.7 mph - N/A   Overcast
4:13 PM 15.8 °F -0.6 °F 10.4 °F 79% 29.75 in 10.0 mi NW 18.4 mph - N/A   Overcast
4:33 PM 15.8 °F -0.2 °F 10.4 °F 79% 29.76 in 10.0 mi NW 17.3 mph - N/A   Overcast
4:53 PM 15.8 °F 0.3 °F 10.4 °F 79% 29.77 in 10.0 mi NW 16.1 mph 20.7 mph N/A Snow Light Snow
5:14 PM 15.8 °F 0.9 °F 10.4 °F 79% 29.78 in 10.0 mi NW 15.0 mph - N/A   Overcast
5:33 PM 15.8 °F 0.3 °F 8.6 °F 73% 29.79 in 10.0 mi NW 16.1 mph - N/A   Overcast
5:53 PM 14.0 °F -1.4 °F 8.6 °F 79% 29.80 in 10.0 mi NW 15.0 mph 19.6 mph N/A   Overcast
6:14 PM 14.0 °F -3.4 °F 8.6 °F 79% 29.81 in 10.0 mi NW 19.6 mph - N/A   Overcast
6:33 PM 12.2 °F -5.8 °F 8.6 °F 85% 29.80 in 10.0 mi NW 19.6 mph - N/A   Overcast
6:53 PM 12.2 °F -4.8 °F 8.6 °F 85% 29.80 in 10.0 mi NW 17.3 mph - N/A Snow Light Snow
7:14 PM 12.2 °F -6.7 °F 6.8 °F 79% 29.80 in 7.0 mi NW 21.9 mph 27.6 mph N/A Snow Light Snow
7:33 PM 12.2 °F -7.1 °F 6.8 °F 79% 29.80 in 10.0 mi NW 23.0 mph - N/A   Overcast
7:54 PM 10.4 °F -9.1 °F 6.8 °F 85% 29.81 in 10.0 mi NW 21.9 mph - N/A   Overcast
8:13 PM 10.4 °F -9.5 °F 5.0 °F 79% 29.82 in 10.0 mi NW 23.0 mph - N/A   Overcast
8:33 PM 10.4 °F -9.5 °F 5.0 °F 79% 29.82 in 10.0 mi NW 23.0 mph - N/A Snow Light Snow
8:54 PM 10.4 °F -7.7 °F 5.0 °F 79% 29.84 in 10.0 mi NW 18.4 mph - N/A   Overcast
9:13 PM 10.4 °F -8.2 °F 3.2 °F 73% 29.86 in 10.0 mi NW 19.6 mph - N/A Snow Light Snow
9:33 PM 10.4 °F -8.2 °F 3.2 °F 73% 29.86 in 10.0 mi NW 19.6 mph - N/A Snow Light Snow
9:54 PM 8.6 °F -11.0 °F 3.2 °F 79% 29.85 in 10.0 mi NW 20.7 mph - N/A   Overcast
10:13 PM 8.6 °F -10.5 °F 3.2 °F 79% 29.86 in 10.0 mi NW 19.6 mph - N/A Snow Light Snow
10:33 PM 8.6 °F -8.9 °F 3.2 °F 79% 29.86 in 10.0 mi NW 16.1 mph - N/A Snow Light Snow
10:54 PM 8.6 °F -11.0 °F 3.2 °F 79% 29.85 in 7.0 mi NW 20.7 mph - N/A Snow Light Snow
11:13 PM 6.8 °F -14.3 °F 1.4 °F 79% 29.85 in 7.0 mi NW 23.0 mph - N/A Snow Light Snow
11:33 PM 6.8 °F -13.8 °F 1.4 °F 79% 29.85 in 7.0 mi NW 21.9 mph - N/A Snow Light Snow
11:54 PM 6.8 °F -14.3 °F 1.4 °F 79% 29.86 in 7.0 mi NNW 23.0 mph - N/A Snow Light Snow